Location: Le Sartre
(44.8050°N, 2.2123°E)
Time: 04:55:48
(UTC+00:00)

CZ-4B DEB - Pass Details

Date: 15 May 2026
Orbit: 833 x 854 km, 98.9° (Epoch: 6 June)

Event Time Altitude Azimuth Distance (km) Brightness Sun altitude
Exits shadow 20:01:15 - 168° (SSE) 3,345 6.9 -8.0°
Reaches altitude 10° 20:03:27 10° 170° (S) 2,476 6.2 -8.3°
Maximum altitude 20:08:57 77° 256° (WSW) 881 4.4 -9.1°
Drops below altitude 10° 20:14:31 10° 343° (NNW) 2,494 7.6 -9.9°
Sets 20:16:54 0° 345° (NNW) 3,433 8.4 -10.2°
